Content
SEND FEEDBACK

Daily
Averages
Monthly
Summary
Belgium

SPA, BELGIUM


Home > Europe > Belgium
Elevation: 1585 feet     Latitude: 50 28N     Longitude: 005 55E

WEATHER
 
SELECT A DAY
Number of Records: 142,824;   Date Range: 7/1/96 - 8/26/14
 
SHARE

PRINT THIS DATA

[ ← Previous Day ]
WEATHER ALMANAC - FEBRUARY 13, 2013
[ Next Day → ]
[ °C ]   °F
Weather ElementAverageHighLow
Temperature23.1 °F30.2 °F (1:25 pm)17.6 °F (10:25 pm)
Dewpoint16 °F19.4 °F (10:02 am)12 °F (10:00 pm)
Humidity73.1 %86 % (3:25 am)42 % (4:00 pm)
Barometer30.13 in30.34 in (10:00 pm)30.01 in (1:09 am)
Wind Speed2.7 mph8.1 mph (4:25 pm)
Weather ElementAverage
Visibility5.2 mi
Wind DirectionENE (53.1 °)

Weather ElementTotal
Precipitation---
Heating Degree Days41.1 (Base 65)
Averaged from 37 records on February 13, 2013
WEATHER CONDITIONS BREAKOUT
WIND DIRECTION BREAKOUT
WEATHER BY HOUR - FEBRUARY 13, 2013
[ °C ]   °F
Local TimeTemperatureDewpointHumidityBarometerVisibilityWind DirectionWind SpeedGust SpeedPrecipitationEventsConditions
1:00 AM20.0 °F17.0 °F80 %30.14 in4.0 miCalmSnowLight Snow Showers
1:09 AM21.2 °F12.2 °F68 %30.01 in6.2 miVariable2.3 mphSnowLight Snow Showers
1:25 AM21.2 °F15.8 °F80 %30.01 in5.0 miVariable2.3 mphSnowLight Snow Showers
2:25 AM21.2 °F15.8 °F80 %30.01 in4.3 miCalmSnowLight Snow Showers
3:25 AM21.2 °F17.6 °F86 %30.01 in3.1 miCalmSnowLight Snow Showers
3:28 AM21.2 °F17.6 °F86 %30.01 in2.8 miCalmSnowLight Snow Showers
3:34 AM21.2 °F17.6 °F86 %30.01 in3.7 miVariable1.2 mphSnowLight Snow Showers
3:44 AM21.2 °F17.6 °F86 %30.01 inCalmSnowLight Snow Showers
3:50 AM21.2 °F15.8 °F80 %30.01 in3.1 miCalmSnowLight Snow Showers
4:00 AM20.0 °F17.0 °F80 %30.17 in3.0 miCalmSnowLight Snow Showers
4:25 AM21.2 °F15.8 °F80 %30.04 in4.3 miVariable1.2 mphSnowLight Snow Showers
5:07 AM21.2 °F17.6 °F86 %30.04 inCalmSnowLight Snow Showers
5:25 AM21.2 °F17.6 °F86 %30.04 in2.8 miVariable1.2 mphSnowLight Snow
5:44 AM21.2 °F15.8 °F80 %30.04 in3.7 miVariable1.2 mphSnowLight Snow
6:25 AM19.4 °F15.8 °F86 %30.06 in3.1 miVariable2.3 mphSnowLight Snow
6:29 AM19.4 °F15.8 °F86 %30.06 inVariable2.3 mphSnowLight Snow
7:00 AM20.0 °F17.0 °F81 %30.22 in2.0 miCalmOvercast
7:25 AM19.4 °F15.8 °F86 %30.09 in2.5 miCalmSnowLight Snow
10:00 AM22.0 °F19.0 °F81 %30.28 in3.0 miCalmMist
10:02 AM23.0 °F19.4 °F86 %30.15 in3.7 miCalmPartly Cloudy
10:25 AM24.8 °F19.4 °F80 %30.15 in3.7 miVariable1.2 mphPartly Cloudy
10:39 AM24.8 °F17.6 °F74 %30.15 in5.0 miEast (80°)4.6 mphClear
11:25 AM26.6 °F17.6 °F69 %30.15 in6.2 miVariable3.5 mphPartly Cloudy
12:25 PM28.4 °F17.6 °F64 %30.15 in6.2 miESE (110°)5.8 mphPartly Cloudy
1:00 PM30.0 °F17.0 °F46 %30.26 in9.0 miESE (120°)6.7 mphPartly Cloudy
1:25 PM30.2 °F15.8 °F55 %30.15 in6.2 miESE (120°)6.9 mphScattered Clouds
2:25 PM30.2 °F15.8 °F55 %30.15 in6.2 miSE (140°)5.8 mphPartly Cloudy
3:25 PM30.2 °F15.8 °F55 %30.18 in6.2 miSE (140°)5.8 mphPartly Cloudy
4:00 PM29.0 °F15.0 °F42 %30.28 in11.0 mi°4.5 mphPartly Cloudy
4:25 PM28.4 °F15.8 °F59 %30.18 in6.2 miSE (130°)8.1 mphMostly Cloudy
5:25 PM26.6 °F14.0 °F59 %30.18 in6.2 miSSE (150°)6.9 mphOvercast
6:25 PM24.8 °F14.0 °F64 %30.18 in6.2 miSE (130°)4.6 mphMostly Cloudy
7:00 PM24.0 °F14.0 °F52 %30.33 in11.0 miSE (130°)4.5 mphMostly Cloudy
7:25 PM23.0 °F12.2 °F63 %30.18 in6.2 miSSE (150°)4.6 mphClear
9:25 PM19.4 °F12.2 °F74 %30.18 in6.2 miSSE (150°)4.6 mphClear
10:00 PM19.0 °F12.0 °F65 %30.34 in7.0 miSSE (150°)4.5 mph
10:25 PM17.6 °F12.2 °F79 %30.18 in6.2 miVariable3.5 mphClear
Hourly data recorded from EBLB, located miles away from Spa, Belgium







STORIES FROM OUR PARTNERS